Overview Statistics Trail Chart Weather Telemetry Raw packets
 

This is the latest recevied weather packets stored in our database for station/object SP6KBU-12. If no packets are shown the sender has not sent any weather packets the latest 10 day(s).

<< 1 2 3 4 >>
Time Temp. Humidity Pressure Rain* Wind** Luminosity Snow
1788614261 22.78° C 34% 1019.8 hPa - - - -
1788613361 22.78° C 38% 1019.8 hPa - - - -
1788612515 21.11° C 39% 1019.9 hPa - - - -
1788612461 21.11° C 39% 1019.9 hPa - - - -
1788611610 21.11° C 41% 1020.1 hPa - - - -
1788611561 21.11° C 41% 1020.1 hPa - - - -
1788610661 20° C 42% 1020 hPa - - - -
1788609761 21.11° C 41% 1020.2 hPa - - - -
1788608861 21.11° C 43% 1020.3 hPa - - - -
1788607960 20.56° C 40% 1020.4 hPa - - - -
1788607060 21.67° C 41% 1020.3 hPa - - - -
1788606160 22.78° C 37% 1020.1 hPa - - - -
1788605472 21.67° C 39% 1020.1 hPa - - - -
1788604571 22.22° C 39% 1020 hPa - - - -
1788603671 22.22° C 41% 1019.9 hPa - - - -
1788602771 21.11° C 41% 1019.9 hPa - - - -
1788601871 20.56° C 42% 1019.8 hPa - - - -
1788600970 21.11° C 44% 1020 hPa - - - -
1788600070 20.56° C 46% 1019.9 hPa - - - -
1788599170 20.56° C 49% 1019.9 hPa - - - -
1788598269 19.44° C 50% 1019.8 hPa - - - -
1788597369 19.44° C 54% 1019.7 hPa - - - -
1788596469 18.89° C 53% 1019.5 hPa - - - -
1788595568 18.33° C 57% 1019.4 hPa - - - -
1788594667 17.78° C 61% 1019.2 hPa - - - -

* Rain since midnight (hover to see other rain measurements)
** Current wind speed in m/s (hover to see current wind gust speed)